,,,PA_Meas_PMT16A,,PR_Meas_QMR101_102,,RH_Meas_QMH101,,SR_Meas_QMS101,,TA_Meas_QMH101,,GenWind,,GenWind,
date,time,status,PA,status,PR,status,RH,status,SR,status,TA,status,DirAvg,status,SpdAvg,
2012-02-12, 00:00:04,VALID,1000.48,VALID,0,VALID,90.6933,VALID,0,VALID,24.7551,VALID,306,VALID,0.337109,
2012-02-12, 00:01:04,VALID,1000.46,VALID,0,VALID,90.6399,VALID,0,VALID,24.7551,VALID,306,VALID,0.319141,
2012-02-12, 00:02:04,VALID,1000.48,VALID,0,VALID,90.4491,VALID,0,VALID,24.7551,VALID,306,VALID,0.246094,
2012-02-12, 00:03:04,VALID,1000.48,VALID,0,VALID,90.3652,VALID,0,VALID,24.7532,VALID,306,VALID,0.38125,
2012-02-12, 00:04:04,VALID,1000.48,VALID,0,VALID,90.3042,VALID,0.104696,VALID,24.8117,VALID,306,VALID,0.203125,
2012-02-12, 00:05:04,VALID,1000.45,VALID,0,VALID,90.2279,VALID,0.104696,VALID,24.8117,VALID,306,VALID,0,
2012-02-12, 00:06:04,VALID,1000.46,VALID,0,VALID,90.1211,VALID,0.104696,VALID,24.8313,VALID,306,VALID,0,
2012-02-12, 00:07:04,VALID,1000.46,VALID,0,VALID,89.8846,VALID,0.104696,VALID,24.8117,VALID,306,VALID,0.135547,
2012-02-12, 00:08:04,VALID,1000.46,VALID,0,VALID,89.7625,VALID,0.104696,VALID,24.8117,VALID,306,VALID,0.385156,
2012-02-12, 00:09:04,VALID,1000.49,VALID,0,VALID,89.9456,VALID,0.104696,VALID,24.8294,VALID,320,VALID,0.862891,
2012-02-12, 00:10:04,VALID,1000.49,VALID,0,VALID,90.1821,VALID,0.104696,VALID,24.8489,VALID,321,VALID,0.764453,
2012-02-12, 00:11:04,VALID,1000.45,VALID,0,VALID,89.6557,VALID,0,VALID,24.8703,VALID,320,VALID,0.323047,
2012-02-12, 00:12:04,VALID,1000.43,VALID,0,VALID,89.4726,VALID,0.104696,VALID,24.8294,VALID,320,VALID,0,
2012-02-12, 00:13:04,VALID,1000.39,VALID,0,VALID,89.854,VALID,0,VALID,24.8489,VALID,321,VALID,0,
2012-02-12, 00:14:04,VALID,1000.38,VALID,0,VALID,89.8388,VALID,0.104696,VALID,24.8489,VALID,321,VALID,0.0148437,
2012-02-12, 00:15:04,VALID,1000.38,VALID,0,VALID,90.1668,VALID,0,VALID,24.8703,VALID,321,VALID,0.507813,
2012-02-12, 00:16:04,VALID,1000.36,VALID,0,VALID,90.678,VALID,0.104696,VALID,24.8898,VALID,329,VALID,0.775,
2012-02-12, 00:17:04,VALID,1000.37,VALID,0,VALID,90.6399,VALID,0,VALID,24.8489,VALID,334,VALID,0.384766,
2012-02-12, 00:18:04,VALID,1000.35,VALID,0,VALID,90.4568,VALID,0.104696,VALID,24.8294,VALID,334,VALID,0.0585938,
2012-02-12, 00:19:04,VALID,1000.36,VALID,0,VALID,90.3118,VALID,0,VALID,24.7922,VALID,334,VALID,0,
2012-02-12, 00:20:04,VALID,1000.36,VALID,0,VALID,90.5712,VALID,0,VALID,24.8136,VALID,334,VALID,0.237891,
2012-02-12, 00:21:04,VALID,1000.34,VALID,0,VALID,90.7467,VALID,0,VALID,24.7727,VALID,334,VALID,0.343359,
2012-02-12, 00:22:04,VALID,1000.31,VALID,0,VALID,90.823,VALID,0,VALID,24.8136,VALID,334,VALID,0.530078,
2012-02-12, 00:23:04,VALID,1000.32,VALID,0,VALID,90.556,VALID,0,VALID,24.7746,VALID,334,VALID,0.387891,
2012-02-12, 00:24:04,VALID,1000.26,VALID,0,VALID,90.0295,VALID,0,VALID,24.7356,VALID,334,VALID,0.373437,
2012-02-12, 00:25:04,VALID,1000.26,VALID,0,VALID,89.8922,VALID,0,VALID,24.7356,VALID,334,VALID,0.458203,
2012-02-12, 00:26:04,VALID,1000.22,VALID,0,VALID,89.4573,VALID,0,VALID,24.6946,VALID,88,VALID,1.0375,
2012-02-12, 00:27:04,VALID,1000.24,VALID,0,VALID,88.8622,VALID,0,VALID,24.716,VALID,105,VALID,0.78125,
2012-02-12, 00:28:04,VALID,1000.22,VALID,0,VALID,88.8698,VALID,0,VALID,24.7356,VALID,105,VALID,0.304688,
2012-02-12, 00:29:04,VALID,1000.2,VALID,0,VALID,88.8393,VALID,0,VALID,24.7356,VALID,105,VALID,0.521094,
2012-02-12, 00:30:04,VALID,1000.19,VALID,0,VALID,88.8011,VALID,0,VALID,24.7356,VALID,79,VALID,0.992188,
2012-02-12, 00:31:04,VALID,1000.17,VALID,0,VALID,89.0834,VALID,0,VALID,24.7551,VALID,78,VALID,0.936328,
2012-02-12, 00:32:04,VALID,1000.12,VALID,0,VALID,89.175,VALID,0,VALID,24.7746,VALID,75,VALID,0.734766,
2012-02-12, 00:33:04,VALID,1000.11,VALID,0,VALID,89.0987,VALID,0,VALID,24.7551,VALID,74,VALID,0.800781,
2012-02-12, 00:34:04,VALID,1000.1,VALID,0,VALID,89.0911,VALID,0,VALID,24.7142,VALID,74,VALID,0.835547,
2012-02-12, 00:35:04,VALID,1000.11,VALID,0,VALID,88.9995,VALID,0,VALID,24.716,VALID,79,VALID,1.09063,
2012-02-12, 00:36:04,VALID,1000.07,VALID,0,VALID,88.8546,VALID,0,VALID,24.6965,VALID,82,VALID,0.964844,
2012-02-12, 00:37:04,VALID,1000.06,VALID,0,VALID,88.908,VALID,0,VALID,24.6751,VALID,85,VALID,0.727344,
2012-02-12, 00:38:04,VALID,1000.05,VALID,0,VALID,88.9995,VALID,0,VALID,24.677,VALID,85,VALID,0.806641,
2012-02-12, 00:39:04,VALID,1000.04,VALID,0,VALID,89.0758,VALID,0,VALID,24.6184,VALID,87,VALID,0.931641,
2012-02-12, 00:40:04,VALID,1000.05,VALID,0,VALID,89.1521,VALID,0,VALID,24.5989,VALID,88,VALID,1.01953,
2012-02-12, 00:41:04,VALID,1000.05,VALID,0,VALID,89.381,VALID,0,VALID,24.5385,VALID,88,VALID,1.27266,
2012-02-12, 00:42:04,VALID,1000.03,VALID,0,VALID,89.6938,VALID,0,VALID,24.519,VALID,90,VALID,1.04531,
2012-02-12, 00:43:04,VALID,1000.04,VALID,0,VALID,89.9303,VALID,0,VALID,24.5209,VALID,88,VALID,1.35859,
2012-02-12, 00:44:04,VALID,1000.01,VALID,0,VALID,90.1287,VALID,0,VALID,24.5013,VALID,87,VALID,1.04414,
2012-02-12, 00:45:04,VALID,1000.01,VALID,0,VALID,90.2889,VALID,0,VALID,24.48,VALID,86,VALID,1.07734,
2012-02-12, 00:46:05,VALID,1000.02,VALID,0,VALID,90.3271,VALID,0,VALID,24.4818,VALID,82,VALID,0.91875,
2012-02-12, 00:47:05,VALID,1000,VALID,0,VALID,90.3652,VALID,0,VALID,24.4409,VALID,81,VALID,0.724219,
2012-02-12, 00:48:05,VALID,999.943,VALID,0,VALID,90.4491,VALID,0,VALID,24.4428,VALID,81,VALID,0.735547,
2012-02-12, 00:49:05,VALID,999.94,VALID,0,VALID,90.5026,VALID,0,VALID,24.4233,VALID,81,VALID,0.830859,
2012-02-12, 00:50:05,VALID,999.907,VALID,0,VALID,90.5331,VALID,0,VALID,24.3824,VALID,81,VALID,0.74375,
2012-02-12, 00:51:05,VALID,999.892,VALID,0,VALID,90.5712,VALID,0,VALID,24.3629,VALID,81,VALID,0.528906,
2012-02-12, 00:52:05,VALID,999.845,VALID,0,VALID,90.5788,VALID,0,VALID,24.3433,VALID,65,VALID,0.553516,
2012-02-12, 00:53:05,VALID,999.851,VALID,0,VALID,90.5636,VALID,0,VALID,24.3452,VALID,65,VALID,0.363672,
2012-02-12, 00:54:05,VALID,999.835,VALID,0,VALID,90.5941,VALID,0,VALID,24.3062,VALID,65,VALID,0.567969,
2012-02-12, 00:55:05,VALID,999.858,VALID,0,VALID,90.7696,VALID,0,VALID,24.2653,VALID,329,VALID,0.726953,
2012-02-12, 00:56:05,VALID,999.834,VALID,0,VALID,90.9298,VALID,0,VALID,24.2848,VALID,304,VALID,0.658594,
2012-02-12, 00:57:05,VALID,999.829,VALID,0,VALID,91.09,VALID,0,VALID,24.3043,VALID,304,VALID,0.384766,
2012-02-12, 00:58:05,VALID,999.824,VALID,0,VALID,91.1434,VALID,0,VALID,24.3452,VALID,304,VALID,0.0667969,
2012-02-12, 00:59:05,VALID,999.8,VALID,0,VALID,91.1129,VALID,0,VALID,24.3043,VALID,304,VALID,0,
2012-02-12, 01:00:05,VALID,999.825,VALID,0,VALID,91.0671,VALID,0,VALID,24.3257,VALID,304,VALID,0,
2012-02-12, 01:01:05,VALID,999.814,VALID,0,VALID,91.1053,VALID,0,VALID,24.2848,VALID,304,VALID,0,
2012-02-12, 01:02:05,VALID,999.814,VALID,0,VALID,91.1892,VALID,0,VALID,24.3257,VALID,304,VALID,0,
2012-02-12, 01:03:05,VALID,999.817,VALID,0,VALID,91.2274,VALID,0,VALID,24.3257,VALID,304,VALID,0.273828,
2012-02-12, 01:04:05,VALID,999.845,VALID,0,VALID,91.1587,VALID,0,VALID,24.3062,VALID,174,VALID,0.403906,
2012-02-12, 01:05:05,VALID,999.806,VALID,0,VALID,91.09,VALID,0,VALID,24.3238,VALID,174,VALID,0.353125,
2012-02-12, 01:06:05,VALID,999.76,VALID,0,VALID,91.0214,VALID,0,VALID,24.3238,VALID,174,VALID,0.251563,
2012-02-12, 01:07:05,VALID,999.724,VALID,0,VALID,91.0366,VALID,0,VALID,24.3647,VALID,174,VALID,0.501172,
2012-02-12, 01:08:05,VALID,999.688,VALID,0,VALID,91.0519,VALID,0,VALID,24.3629,VALID,141,VALID,0.840234,
2012-02-12, 01:09:05,VALID,999.661,VALID,0,VALID,91.1358,VALID,0,VALID,24.3824,VALID,140,VALID,0.825391,
2012-02-12, 01:10:05,VALID,999.646,VALID,0,VALID,91.2197,VALID,0,VALID,24.4428,VALID,140,VALID,0.605078,
2012-02-12, 01:11:05,VALID,999.588,VALID,0,VALID,91.2197,VALID,0,VALID,24.4214,VALID,140,VALID,0.532031,
2012-02-12, 01:12:05,VALID,999.583,VALID,0,VALID,91.174,VALID,0,VALID,24.4214,VALID,140,VALID,0.268359,
2012-02-12, 01:13:05,VALID,999.54,VALID,0,VALID,91.1587,VALID,0,VALID,24.4214,VALID,140,VALID,0.359766,
2012-02-12, 01:14:05,VALID,999.514,VALID,0,VALID,91.174,VALID,0,VALID,24.4214,VALID,133,VALID,0.599609,
2012-02-12, 01:15:05,VALID,999.474,VALID,0,VALID,91.1587,VALID,0,VALID,24.4019,VALID,128,VALID,0.508984,
2012-02-12, 01:16:05,VALID,999.457,VALID,0,VALID,91.0671,VALID,0,VALID,24.4037,VALID,128,VALID,0.432813,
2012-02-12, 01:17:05,VALID,999.448,VALID,0,VALID,91.1206,VALID,0,VALID,24.3629,VALID,128,VALID,0.380859,
2012-02-12, 01:18:05,VALID,999.42,VALID,0,VALID,91.1206,VALID,0,VALID,24.3238,VALID,128,VALID,0.504687,
2012-02-12, 01:19:05,VALID,999.397,VALID,0,VALID,91.2884,VALID,0,VALID,24.3452,VALID,128,VALID,0.663672,
2012-02-12, 01:20:05,VALID,999.376,VALID,0,VALID,91.4563,VALID,0,VALID,24.3647,VALID,116,VALID,0.855469,
2012-02-12, 01:21:05,VALID,999.365,VALID,0,VALID,91.7004,VALID,0,VALID,24.3629,VALID,116,VALID,0.787891,
2012-02-12, 01:22:05,VALID,999.336,VALID,0,VALID,91.8377,VALID,0,VALID,24.3629,VALID,114,VALID,0.829687,
2012-02-12, 01:23:05,VALID,999.309,VALID,0,VALID,91.7996,VALID,0,VALID,24.3824,VALID,102,VALID,0.842578,
2012-02-12, 01:24:05,VALID,999.313,VALID,0,VALID,91.6699,VALID,0,VALID,24.3629,VALID,102,VALID,0.628516,
2012-02-12, 01:25:05,VALID,999.285,VALID,0,VALID,91.4715,VALID,0,VALID,24.3043,VALID,102,VALID,0.647656,
2012-02-12, 01:26:05,VALID,999.267,VALID,0,VALID,91.3418,VALID,0,VALID,24.2848,VALID,92,VALID,0.616406,
2012-02-12, 01:27:05,VALID,999.236,VALID,0,VALID,91.2121,VALID,0,VALID,24.2458,VALID,86,VALID,0.735547,
2012-02-12, 01:28:05,VALID,999.218,VALID,0,VALID,91.1892,VALID,0,VALID,24.2281,VALID,78,VALID,0.659375,
2012-02-12, 01:29:05,VALID,999.17,VALID,0,VALID,91.2045,VALID,0,VALID,24.1891,VALID,67,VALID,0.525781,
2012-02-12, 01:30:05,VALID,999.148,VALID,0,VALID,91.2808,VALID,0,VALID,24.1696,VALID,67,VALID,0.603906,
2012-02-12, 01:31:05,VALID,999.14,VALID,0,VALID,91.3494,VALID,0,VALID,24.1287,VALID,67,VALID,0.570703,
2012-02-12, 01:32:05,VALID,999.141,VALID,0,VALID,91.3952,VALID,0,VALID,24.1287,VALID,68,VALID,0.414453,
2012-02-12, 01:33:05,VALID,999.129,VALID,0,VALID,91.3952,VALID,0,VALID,24.1305,VALID,68,VALID,0.271875,
2012-02-12, 01:34:05,VALID,999.122,VALID,0,VALID,91.4257,VALID,0,VALID,24.111,VALID,68,VALID,0.221094,
2012-02-12, 01:35:05,VALID,999.126,VALID,0,VALID,91.4791,VALID,0,VALID,24.0701,VALID,68,VALID,0.35625,
2012-02-12, 01:36:05,VALID,999.119,VALID,0,VALID,91.7462,VALID,0,VALID,24.111,VALID,121,VALID,0.902734,
2012-02-12, 01:37:05,VALID,999.148,VALID,0,VALID,91.9369,VALID,0,VALID,24.1287,VALID,121,VALID,0.7125,
2012-02-12, 01:38:05,VALID,999.144,VALID,0,VALID,92.0209,VALID,0,VALID,24.1482,VALID,121,VALID,0.621484,
2012-02-12, 01:39:05,VALID,999.173,VALID,0,VALID,91.9674,VALID,0,VALID,24.1891,VALID,121,VALID,0.492578,
2012-02-12, 01:40:05,VALID,999.169,VALID,0,VALID,91.9445,VALID,0,VALID,24.2086,VALID,117,VALID,0.635938,
2012-02-12, 01:41:05,VALID,999.199,VALID,0,VALID,91.8911,VALID,0,VALID,24.1872,VALID,117,VALID,0.276563,
2012-02-12, 01:42:05,VALID,999.204,VALID,0,VALID,91.9598,VALID,0,VALID,24.2086,VALID,117,VALID,0.651953,
2012-02-12, 01:43:05,VALID,999.223,VALID,0,VALID,91.914,VALID,0,VALID,24.2067,VALID,117,VALID,0.208594,
2012-02-12, 01:44:05,VALID,999.242,VALID,0,VALID,91.792,VALID,0,VALID,24.1872,VALID,117,VALID,0,
2012-02-12, 01:45:05,VALID,999.256,VALID,0,VALID,91.6623,VALID,0,VALID,24.1872,VALID,117,VALID,0,
2012-02-12, 01:46:05,VALID,999.285,VALID,0,VALID,91.5783,VALID,0,VALID,24.1482,VALID,117,VALID,0,
2012-02-12, 01:47:05,VALID,999.305,VALID,0,VALID,91.6088,VALID,0,VALID,24.1092,VALID,117,VALID,0.110937,
2012-02-12, 01:48:05,VALID,999.256,VALID,0,VALID,91.6699,VALID,0,VALID,24.1092,VALID,117,VALID,0.372266,
2012-02-12, 01:49:05,VALID,999.25,VALID,0,VALID,91.853,VALID,0,VALID,24.1092,VALID,117,VALID,0.339844,
2012-02-12, 01:50:05,VALID,999.25,VALID,0,VALID,91.9827,VALID,0,VALID,24.1092,VALID,117,VALID,0.521094,
2012-02-12, 01:51:05,VALID,999.25,VALID,0,VALID,92.0437,VALID,0,VALID,24.1287,VALID,117,VALID,0.269141,
2012-02-12, 01:52:05,VALID,999.271,VALID,0,VALID,92.0361,VALID,0,VALID,24.1287,VALID,117,VALID,0.156641,
2012-02-12, 01:53:05,VALID,999.267,VALID,0,VALID,92.0743,VALID,0,VALID,24.1287,VALID,117,VALID,0.133594,
2012-02-12, 01:54:05,VALID,999.232,VALID,0,VALID,92.0209,VALID,0,VALID,24.15,VALID,117,VALID,0.141797,
2012-02-12, 01:55:05,VALID,999.263,VALID,0,VALID,92.0666,VALID,0,VALID,24.1287,VALID,117,VALID,0.160547,
2012-02-12, 01:56:05,VALID,999.244,VALID,0,VALID,92.0743,VALID,0,VALID,24.15,VALID,117,VALID,0.253906,
2012-02-12, 01:57:05,VALID,999.24,VALID,0,VALID,92.0285,VALID,0,VALID,24.15,VALID,83,VALID,0.571875,
2012-02-12, 01:58:05,VALID,999.266,VALID,0,VALID,91.914,VALID,0,VALID,24.0897,VALID,346,VALID,0.670703,
2012-02-12, 01:59:05,VALID,999.286,VALID,0,VALID,91.9751,VALID,0,VALID,24.0506,VALID,346,VALID,0.643359,
2012-02-12, 02:00:05,VALID,999.339,VALID,0,VALID,91.9903,VALID,0,VALID,24.0311,VALID,346,VALID,0.651953,
2012-02-12, 02:01:05,VALID,999.343,VALID,0,VALID,92.0514,VALID,0,VALID,24.0329,VALID,346,VALID,0.633984,
2012-02-12, 02:02:05,VALID,999.392,VALID,0,VALID,92.0819,VALID,0,VALID,23.9921,VALID,346,VALID,0.710156,
2012-02-12, 02:03:05,VALID,999.408,VALID,0,VALID,92.0285,VALID,0,VALID,23.9531,VALID,346,VALID,0.640625,
2012-02-12, 02:04:05,VALID,999.425,VALID,0,VALID,92.0743,VALID,0,VALID,23.9354,VALID,346,VALID,0.582812,
2012-02-12, 02:05:05,VALID,999.407,VALID,0,VALID,92.1353,VALID,0,VALID,23.8963,VALID,347,VALID,0.678516,
2012-02-12, 02:06:05,VALID,999.421,VALID,0,VALID,92.1963,VALID,0,VALID,23.875,VALID,17,VALID,0.806641,
2012-02-12, 02:07:05,VALID,999.43,VALID,0,VALID,92.1887,VALID,0,VALID,23.8768,VALID,23,VALID,0.642969,
2012-02-12, 02:08:05,VALID,999.443,VALID,0,VALID,92.2192,VALID,0,VALID,23.8573,VALID,51,VALID,0.790234,
2012-02-12, 02:09:05,VALID,999.417,VALID,0,VALID,92.3871,VALID,0,VALID,23.8555,VALID,52,VALID,0.7875,
2012-02-12, 02:10:05,VALID,999.413,VALID,0,VALID,92.5244,VALID,0,VALID,23.8963,VALID,52,VALID,0.848437,
2012-02-12, 02:11:05,VALID,999.414,VALID,0,VALID,92.5397,VALID,0,VALID,23.9549,VALID,52,VALID,0.769531,
2012-02-12, 02:12:05,VALID,999.394,VALID,0,VALID,92.532,VALID,0,VALID,23.9549,VALID,52,VALID,0.522656,
2012-02-12, 02:13:05,VALID,999.43,VALID,0,VALID,92.471,VALID,0,VALID,23.9531,VALID,54,VALID,0.234375,
2012-02-12, 02:14:05,VALID,999.396,VALID,0,VALID,92.4634,VALID,0,VALID,23.9939,VALID,78,VALID,0.297266,
2012-02-12, 02:15:05,VALID,999.386,VALID,0,VALID,92.4252,VALID,0,VALID,23.9939,VALID,78,VALID,0.325391,
2012-02-12, 02:16:05,VALID,999.378,VALID,0,VALID,92.3794,VALID,0,VALID,23.9726,VALID,78,VALID,0.134766,
2012-02-12, 02:17:05,VALID,999.329,VALID,0,VALID,92.3718,VALID,0,VALID,23.9939,VALID,78,VALID,0.513672,
2012-02-12, 02:18:05,VALID,999.314,VALID,0,VALID,92.3871,VALID,0,VALID,23.9939,VALID,102,VALID,0.798437,
2012-02-12, 02:19:05,VALID,999.306,VALID,0,VALID,92.3718,VALID,0,VALID,23.9921,VALID,103,VALID,0.837109,
2012-02-12, 02:20:05,VALID,999.282,VALID,0,VALID,92.4023,VALID,0,VALID,24.0116,VALID,121,VALID,1.34023,
2012-02-12, 02:21:05,VALID,999.26,VALID,0,VALID,92.3871,VALID,0,VALID,24.0329,VALID,133,VALID,1.17383,
2012-02-12, 02:22:05,VALID,999.258,VALID,0,VALID,92.3413,VALID,0,VALID,24.0311,VALID,136,VALID,1.12422,
2012-02-12, 02:23:05,VALID,999.21,VALID,0,VALID,92.2879,VALID,0,VALID,24.072,VALID,136,VALID,1.23203,
2012-02-12, 02:24:05,VALID,999.214,VALID,0,VALID,92.2268,VALID,0,VALID,24.0506,VALID,135,VALID,1.21523,
2012-02-12, 02:25:05,VALID,999.19,VALID,0,VALID,92.1963,VALID,0,VALID,24.0701,VALID,152,VALID,1.40664,
2012-02-12, 02:26:05,VALID,999.199,VALID,0,VALID,92.1506,VALID,0,VALID,24.0897,VALID,142,VALID,0.908594,
2012-02-12, 02:27:05,VALID,999.15,VALID,0,VALID,92.0971,VALID,0,VALID,24.0897,VALID,143,VALID,1.1957,
2012-02-12, 02:28:05,VALID,999.149,VALID,0,VALID,92.0514,VALID,0,VALID,24.0897,VALID,144,VALID,1.48984,
2012-02-12, 02:29:05,VALID,999.147,VALID,0,VALID,91.998,VALID,0,VALID,24.0897,VALID,145,VALID,0.805469,
2012-02-12, 02:30:05,VALID,999.128,VALID,0,VALID,91.8988,VALID,0,VALID,24.1092,VALID,132,VALID,0.447266,
2012-02-12, 02:31:05,VALID,999.159,VALID,0,VALID,91.8072,VALID,0,VALID,24.1092,VALID,132,VALID,0.508203,
2012-02-12, 02:32:05,VALID,999.183,VALID,0,VALID,91.7157,VALID,0,VALID,24.0701,VALID,132,VALID,0.559375,
2012-02-12, 02:33:05,VALID,999.147,VALID,0,VALID,91.6623,VALID,0,VALID,24.0506,VALID,106,VALID,1.09531,
2012-02-12, 02:34:05,VALID,999.142,VALID,0,VALID,91.5936,VALID,0,VALID,24.0525,VALID,102,VALID,0.535547,
2012-02-12, 02:35:05,VALID,999.106,VALID,0,VALID,91.4868,VALID,0,VALID,24.0525,VALID,81,VALID,0.539063,
2012-02-12, 02:36:05,VALID,999.097,VALID,0,VALID,91.441,VALID,0,VALID,24.0329,VALID,81,VALID,0.730078,
2012-02-12, 02:37:05,VALID,999.104,VALID,0,VALID,91.4563,VALID,0,VALID,23.9921,VALID,65,VALID,0.996875,
2012-02-12, 02:38:05,VALID,999.065,VALID,0,VALID,91.5478,VALID,0,VALID,23.9939,VALID,92,VALID,1.39961,
2012-02-12, 02:39:05,VALID,999.056,VALID,0,VALID,91.6012,VALID,0,VALID,23.9726,VALID,89,VALID,1.44492,
2012-02-12, 02:40:05,VALID,999.025,VALID,0,VALID,91.6775,VALID,0,VALID,23.9939,VALID,70,VALID,1.99922,
2012-02-12, 02:41:05,VALID,999.044,VALID,0,VALID,91.708,VALID,0,VALID,24.0134,VALID,89,VALID,1.04297,
2012-02-12, 02:42:05,VALID,999.066,VALID,0,VALID,91.6623,VALID,0,VALID,23.9939,VALID,62,VALID,1.0043,
2012-02-12, 02:43:05,VALID,999.04,VALID,0,VALID,91.6088,VALID,0,VALID,23.9531,VALID,58,VALID,0.519141,
2012-02-12, 02:44:05,VALID,999.026,VALID,0,VALID,91.586,VALID,0,VALID,23.9744,VALID,58,VALID,0.519531,
2012-02-12, 02:45:05,VALID,999.031,VALID,0,VALID,91.6012,VALID,0,VALID,23.9336,VALID,58,VALID,0.491406,
2012-02-12, 02:46:05,VALID,999.02,VALID,0,VALID,91.6241,VALID,0,VALID,23.9549,VALID,58,VALID,0.328516,
2012-02-12, 02:47:05,VALID,999.002,VALID,0,VALID,91.6546,VALID,0,VALID,23.914,VALID,11,VALID,0.529297,
2012-02-12, 02:48:05,VALID,998.982,VALID,0,VALID,91.6623,VALID,0,VALID,23.914,VALID,11,VALID,0.343359,
2012-02-12, 02:49:05,VALID,998.98,VALID,0,VALID,91.708,VALID,0,VALID,23.914,VALID,11,VALID,0.309766,
2012-02-12, 02:50:05,VALID,998.952,VALID,0,VALID,91.6851,VALID,0,VALID,23.914,VALID,11,VALID,0.259766,
2012-02-12, 02:51:05,VALID,998.946,VALID,0,VALID,91.647,VALID,0,VALID,23.8945,VALID,11,VALID,0,
2012-02-12, 02:52:05,VALID,998.915,VALID,0,VALID,91.6012,VALID,0,VALID,23.8945,VALID,11,VALID,0,
2012-02-12, 02:53:05,VALID,998.909,VALID,0,VALID,91.6088,VALID,0,VALID,23.875,VALID,11,VALID,0.132031,
2012-02-12, 02:54:05,VALID,998.898,VALID,0,VALID,91.6394,VALID,0,VALID,23.8945,VALID,11,VALID,0,
2012-02-12, 02:55:05,VALID,998.877,VALID,0,VALID,91.6699,VALID,0,VALID,23.8945,VALID,92,VALID,0.211719,
2012-02-12, 02:56:05,VALID,998.871,VALID,0,VALID,91.6394,VALID,0,VALID,23.914,VALID,92,VALID,0.423828,
2012-02-12, 02:57:05,VALID,998.827,VALID,0,VALID,91.5554,VALID,0,VALID,23.9354,VALID,92,VALID,0.489844,
2012-02-12, 02:58:05,VALID,998.844,VALID,0,VALID,91.4868,VALID,0,VALID,23.9336,VALID,85,VALID,0.627734,
2012-02-12, 02:59:05,VALID,998.822,VALID,0,VALID,91.4105,VALID,0,VALID,23.9354,VALID,85,VALID,0.507031,
2012-02-12, 03:00:05,VALID,998.803,VALID,0,VALID,91.3952,VALID,0,VALID,23.9336,VALID,85,VALID,0.526953,
2012-02-12, 03:01:05,VALID,998.783,VALID,0,VALID,91.38,VALID,0,VALID,23.9531,VALID,85,VALID,0.692187,
2012-02-12, 03:02:05,VALID,998.74,VALID,0,VALID,91.3342,VALID,0,VALID,23.9549,VALID,85,VALID,0.294141,
2012-02-12, 03:03:05,VALID,998.77,VALID,0,VALID,91.3342,VALID,0,VALID,23.9336,VALID,85,VALID,0.457031,
2012-02-12, 03:04:05,VALID,998.753,VALID,0,VALID,91.4563,VALID,0,VALID,23.9549,VALID,85,VALID,0.45,
2012-02-12, 03:05:05,VALID,998.735,VALID,0,VALID,91.5631,VALID,0,VALID,23.914,VALID,83,VALID,0.617188,
2012-02-12, 03:06:05,VALID,998.737,VALID,0,VALID,91.6928,VALID,0,VALID,23.9354,VALID,33,VALID,0.850391,
2012-02-12, 03:07:05,VALID,998.77,VALID,0,VALID,91.7996,VALID,0,VALID,23.875,VALID,33,VALID,0.81875,
2012-02-12, 03:08:05,VALID,998.754,VALID,0,VALID,91.8301,VALID,0,VALID,23.8963,VALID,33,VALID,0.792969,
2012-02-12, 03:09:05,VALID,998.737,VALID,0,VALID,91.8454,VALID,0,VALID,23.8555,VALID,33,VALID,0.56875,
2012-02-12, 03:10:05,VALID,998.737,VALID,0,VALID,91.8835,VALID,0,VALID,23.836,VALID,33,VALID,0.382422,
2012-02-12, 03:11:05,VALID,998.705,VALID,0,VALID,91.9369,VALID,0,VALID,23.8165,VALID,33,VALID,0.3,
2012-02-12, 03:12:05,VALID,998.704,VALID,0,VALID,91.9827,VALID,0,VALID,23.8183,VALID,33,VALID,0.610547,
2012-02-12, 03:13:05,VALID,998.662,VALID,0,VALID,92.0514,VALID,0.104696,VALID,23.7757,VALID,33,VALID,0.407031,
2012-02-12, 03:14:05,VALID,998.678,VALID,0,VALID,92.0971,VALID,0,VALID,23.7775,VALID,33,VALID,0.0539063,
2012-02-12, 03:15:05,VALID,998.667,VALID,0,VALID,92.0285,VALID,0,VALID,23.7579,VALID,33,VALID,0.473437,
2012-02-12, 03:16:05,VALID,998.667,VALID,0,VALID,92.1429,VALID,0,VALID,23.7579,VALID,132,VALID,0.427734,
2012-02-12, 03:17:05,VALID,998.695,VALID,0,VALID,92.1506,VALID,0,VALID,23.7579,VALID,132,VALID,0,
2012-02-12, 03:18:05,VALID,998.679,VALID,0,VALID,92.0895,VALID,0,VALID,23.7189,VALID,132,VALID,0.334375,
2012-02-12, 03:19:05,VALID,998.686,VALID,0,VALID,92.1506,VALID,0,VALID,23.6994,VALID,349,VALID,0.748047,
2012-02-12, 03:20:05,VALID,998.707,VALID,0,VALID,92.326,VALID,0,VALID,23.7189,VALID,352,VALID,0.959766,
2012-02-12, 03:21:05,VALID,998.721,VALID,0,VALID,92.326,VALID,0,VALID,23.6994,VALID,347,VALID,1.00039,
2012-02-12, 03:22:05,VALID,998.778,VALID,0,VALID,92.3642,VALID,0,VALID,23.6994,VALID,345,VALID,0.964063,
2012-02-12, 03:23:05,VALID,998.758,VALID,0,VALID,92.3413,VALID,0,VALID,23.7012,VALID,345,VALID,0.9,
2012-02-12, 03:24:05,VALID,998.765,VALID,0,VALID,92.4023,VALID,0,VALID,23.6799,VALID,345,VALID,0.779297,
2012-02-12, 03:25:05,VALID,998.788,VALID,0,VALID,92.4405,VALID,0,VALID,23.6604,VALID,345,VALID,0.811328,
2012-02-12, 03:26:05,VALID,998.776,VALID,0,VALID,92.4634,VALID,0,VALID,23.6604,VALID,345,VALID,0.600781,
2012-02-12, 03:27:05,VALID,998.798,VALID,0,VALID,92.4405,VALID,0,VALID,23.6409,VALID,345,VALID,0.584766,
2012-02-12, 03:28:05,VALID,998.821,VALID,0,VALID,92.4786,VALID,0,VALID,23.6622,VALID,345,VALID,0.316797,
2012-02-12, 03:29:04,VALID,998.809,VALID,0,VALID,92.5244,VALID,0,VALID,23.6817,VALID,345,VALID,0.416797,
2012-02-12, 03:30:04,VALID,998.832,VALID,0,VALID,92.532,VALID,0,VALID,23.6817,VALID,345,VALID,0.40625,
2012-02-12, 03:31:04,VALID,998.81,VALID,0,VALID,92.5854,VALID,0,VALID,23.6604,VALID,345,VALID,0.142188,
2012-02-12, 03:32:04,VALID,998.813,VALID,0,VALID,92.5778,VALID,0,VALID,23.6817,VALID,345,VALID,0,
2012-02-12, 03:33:04,VALID,998.84,VALID,0,VALID,92.5473,VALID,0,VALID,23.7012,VALID,345,VALID,0.0667969,
2012-02-12, 03:34:04,VALID,998.822,VALID,0,VALID,92.5397,VALID,0,VALID,23.6799,VALID,345,VALID,0.01875,
2012-02-12, 03:35:04,VALID,998.847,VALID,0,VALID,92.5015,VALID,0.104696,VALID,23.7012,VALID,345,VALID,0,
2012-02-12, 03:36:04,VALID,998.829,VALID,0,VALID,92.4252,VALID,0,VALID,23.6604,VALID,345,VALID,0.223438,
2012-02-12, 03:37:04,VALID,998.832,VALID,0,VALID,92.3871,VALID,0,VALID,23.6604,VALID,345,VALID,0.280859,
2012-02-12, 03:38:04,VALID,998.84,VALID,0,VALID,92.4328,VALID,0,VALID,23.6409,VALID,345,VALID,0.203906,
2012-02-12, 03:39:04,VALID,998.828,VALID,0,VALID,92.5168,VALID,0,VALID,23.6214,VALID,345,VALID,0.167969,
2012-02-12, 03:40:04,VALID,998.846,VALID,0,VALID,92.4863,VALID,0,VALID,23.6214,VALID,345,VALID,0,
2012-02-12, 03:41:04,VALID,998.84,VALID,0,VALID,92.4786,VALID,0,VALID,23.6036,VALID,345,VALID,0,
2012-02-12, 03:42:04,VALID,998.843,VALID,0,VALID,92.5397,VALID,0,VALID,23.5823,VALID,345,VALID,0.376172,
2012-02-12, 03:43:04,VALID,998.828,VALID,0,VALID,92.5778,VALID,0,VALID,23.5841,VALID,345,VALID,0.330859,
2012-02-12, 03:44:04,VALID,998.827,VALID,0,VALID,92.5778,VALID,0,VALID,23.5628,VALID,345,VALID,0.705469,
2012-02-12, 03:45:04,VALID,998.804,VALID,0,VALID,92.5473,VALID,0,VALID,23.5433,VALID,78,VALID,0.894531,
2012-02-12, 03:46:04,VALID,998.81,VALID,0,VALID,92.5549,VALID,0,VALID,23.5628,VALID,78,VALID,0.937109,